When you browse on this site, cookies collect data to enhance your experience and personalize the content and advertising you see.
Visit our Privacy Policy to learn more. By continuing to use the site, you agree to this use of cookies and data.
  • en France
  • Liste des pays
  • À 7 jours
  • Température de l'eau
  • Carte satellitaire
  • Carte météo
  • Widgets météo
  • user-avatar
    Se connecter

    Météo par heure à Djambala

    Ce jour, 14 Décembre, Vendredi

    Heure Température Précipitation Vent Pression Humidité
    00:00 +23°C° 1 mm 1 m/s 696 mmHg 86%
    01:00 +23°C° 0 mm 1 m/s 696 mmHg 90%
    02:00 +23°C° 2.1 mm 1 m/s 696 mmHg 90%
    03:00 +22°C° 2.1 mm 1 m/s 696 mmHg 90%
    04:00 +22°C° 2.1 mm 1 m/s 696 mmHg 90%
    05:00 +23°C° 0.5 mm 1 m/s 696 mmHg 89%
    06:00 +23°C° 0.5 mm 1 m/s 697 mmHg 87%
    07:00 +22°C° 0 mm 0 m/s 697 mmHg 84%
    08:00 +26°C° 0.5 mm 1 m/s 697 mmHg 78%
    09:00 +27°C° 0.5 mm 1 m/s 697 mmHg 72%
    10:00 +29°C° 0.5 mm 1 m/s 698 mmHg 66%
    11:00 +30°C° 0 mm 1 m/s 697 mmHg 59%
    12:00 +31°C° 0 mm 1 m/s 696 mmHg 53%
    13:00 +32°C° 0 mm 2 m/s 696 mmHg 47%
    14:00 +32°C° 0 mm 1 m/s 695 mmHg 49%
    15:00 +31°C° 0 mm 1 m/s 695 mmHg 52%
    16:00 +31°C° 0 mm 1 m/s 694 mmHg 54%
    17:00 +30°C° 0 mm 1 m/s 694 mmHg 57%
    18:00 +26°C° 0 mm 0 m/s 694 mmHg 59%
    19:00 +25°C° 0 mm 0 m/s 694 mmHg 62%
    20:00 +26°C° 0.6 mm 1 m/s 695 mmHg 67%
    21:00 +26°C° 0.6 mm 1 m/s 695 mmHg 73%
    22:00 +25°C° 0.6 mm 2 m/s 696 mmHg 78%
    23:00 +24°C° 2 mm 2 m/s 696 mmHg 81%

    Demain, 15 Décembre, Samedi

    Heure Température Précipitation Vent Pression Humidité
    00:00 +24°C° 2 mm 2 m/s 696 mmHg 85%
    01:00 +22°C° 2 mm 3 m/s 696 mmHg 89%
    02:00 +23°C° 0.8 mm 2 m/s 696 mmHg 89%
    03:00 +23°C° 0.8 mm 2 m/s 696 mmHg 90%
    04:00 +21°C° 0.8 mm 2 m/s 695 mmHg 90%
    05:00 +23°C° 0.2 mm 2 m/s 696 mmHg 90%
    06:00 +23°C° 0.2 mm 2 m/s 696 mmHg 89%
    07:00 +23°C° 0.2 mm 2 m/s 697 mmHg 89%
    08:00 +25°C° 0.1 mm 2 m/s 697 mmHg 82%
    09:00 +27°C° 0.1 mm 3 m/s 697 mmHg 75%
    10:00 +29°C° 0.1 mm 3 m/s 697 mmHg 68%
    11:00 +29°C° 0.8 mm 3 m/s 697 mmHg 65%
    12:00 +30°C° 0.8 mm 3 m/s 696 mmHg 62%
    13:00 +31°C° 0.8 mm 2 m/s 696 mmHg 58%
    14:00 +30°C° 0.5 mm 2 m/s 695 mmHg 60%
    15:00 +30°C° 0.5 mm 2 m/s 695 mmHg 62%
    16:00 +30°C° 0.5 mm 2 m/s 694 mmHg 64%
    17:00 +28°C° 1.2 mm 2 m/s 695 mmHg 72%
    18:00 +26°C° 1.2 mm 2 m/s 695 mmHg 80%
    19:00 +24°C° 1.2 mm 2 m/s 695 mmHg 88%
    20:00 +24°C° 0.1 mm 2 m/s 696 mmHg 89%
    21:00 +23°C° 0.1 mm 2 m/s 696 mmHg 90%
    22:00 +23°C° 0.1 mm 2 m/s 697 mmHg 91%
    23:00 +23°C° 0.8 mm 2 m/s 696 mmHg 91%

    Après-demain, 16 Décembre, Dimanche

    Heure Température Précipitation Vent Pression Humidité
    00:00 +23°C° 0.8 mm 1 m/s 696 mmHg 91%
    01:00 +23°C° 0.8 mm 1 m/s 696 mmHg 91%
    02:00 +23°C° 0.8 mm 1 m/s 696 mmHg 91%
    03:00 +23°C° 0.8 mm 1 m/s 695 mmHg 92%
    04:00 +23°C° 0.8 mm 1 m/s 695 mmHg 92%
    05:00 +21°C° 0.7 mm 2 m/s 696 mmHg 92%
    06:00 +21°C° 0.7 mm 3 m/s 696 mmHg 92%
    07:00 +21°C° 0.7 mm 3 m/s 696 mmHg 91%
    08:00 +22°C° 0.2 mm 3 m/s 697 mmHg 88%
    09:00 +24°C° 0.2 mm 3 m/s 697 mmHg 84%
    10:00 +25°C° 0.2 mm 3 m/s 697 mmHg 81%
    11:00 +26°C° 0.3 mm 3 m/s 697 mmHg 75%
    12:00 +28°C° 0.3 mm 3 m/s 696 mmHg 70%
    13:00 +29°C° 0.3 mm 3 m/s 696 mmHg 65%
    14:00 +29°C° 0.5 mm 2 m/s 695 mmHg 66%
    15:00 +28°C° 0.5 mm 2 m/s 695 mmHg 68%
    16:00 +28°C° 0.5 mm 2 m/s 694 mmHg 69%
    17:00 +26°C° 0.7 mm 2 m/s 695 mmHg 76%
    18:00 +25°C° 0.7 mm 1 m/s 695 mmHg 82%
    19:00 +24°C° 0.7 mm 1 m/s 696 mmHg 88%
    20:00 +23°C° 0.8 mm 1 m/s 696 mmHg 89%
    21:00 +23°C° 0.8 mm 1 m/s 696 mmHg 90%
    22:00 +21°C° 0.8 mm 0 m/s 697 mmHg 91%
    23:00 +20°C° 0.7 mm 0 m/s 696 mmHg 91%

    17 Décembre, Lundi

    Heure Température Précipitation Vent Pression Humidité
    00:00 +20°C° 0.7 mm 0 m/s 696 mmHg 91%
    01:00 +20°C° 0.7 mm 0 m/s 696 mmHg 90%
    02:00 +22°C° 0.5 mm 1 m/s 696 mmHg 91%
    03:00 +22°C° 0.5 mm 1 m/s 696 mmHg 92%
    04:00 +22°C° 0.5 mm 1 m/s 695 mmHg 92%
    05:00 +22°C° 0.2 mm 1 m/s 696 mmHg 91%
    06:00 +22°C° 0.2 mm 1 m/s 696 mmHg 90%
    07:00 +23°C° 0.2 mm 2 m/s 696 mmHg 89%
    08:00 +24°C° 0 mm 2 m/s 697 mmHg 84%
    09:00 +25°C° 0 mm 2 m/s 697 mmHg 79%
    10:00 +26°C° 0 mm 2 m/s 697 mmHg 73%
    11:00 +28°C° 0 mm 2 m/s 697 mmHg 64%
    12:00 +30°C° 0 mm 1 m/s 696 mmHg 54%
    13:00 +32°C° 0 mm 1 m/s 696 mmHg 44%
    14:00 +31°C° 0 mm 1 m/s 695 mmHg 46%
    15:00 +31°C° 0 mm 1 m/s 695 mmHg 47%
    16:00 +30°C° 0 mm 1 m/s 694 mmHg 49%
    17:00 +28°C° 0 mm 1 m/s 694 mmHg 55%
    18:00 +27°C° 0 mm 1 m/s 694 mmHg 61%
    19:00 +25°C° 0 mm 1 m/s 695 mmHg 67%
    20:00 +24°C° 0 mm 1 m/s 695 mmHg 70%
    21:00 +24°C° 0 mm 1 m/s 695 mmHg 73%
    22:00 +23°C° 0 mm 1 m/s 696 mmHg 75%
    23:00 +23°C° 0 mm 1 m/s 696 mmHg 79%

    18 Décembre, Mardi

    Heure Température Précipitation Vent Pression Humidité
    00:00 +20°C° 0 mm 0 m/s 695 mmHg 82%
    01:00 +20°C° 0 mm 0 m/s 695 mmHg 86%
    02:00 +20°C° 0 mm 0 m/s 695 mmHg 86%
    03:00 +19°C° 0 mm 0 m/s 695 mmHg 87%
    04:00 +19°C° 0 mm 0 m/s 695 mmHg 88%
    05:00 +22°C° 0 mm 1 m/s 695 mmHg 86%
    06:00 +22°C° 0 mm 1 m/s 696 mmHg 85%
    07:00 +23°C° 0 mm 1 m/s 696 mmHg 83%
    08:00 +25°C° 0 mm 1 m/s 697 mmHg 75%
    09:00 +27°C° 0 mm 1 m/s 697 mmHg 66%
    10:00 +29°C° 0 mm 2 m/s 697 mmHg 58%
    11:00 +31°C° 0 mm 1 m/s 697 mmHg 53%
    12:00 +32°C° 0 mm 1 m/s 696 mmHg 48%
    13:00 +32°C° 0 mm 0 m/s 695 mmHg 43%
    14:00 +31°C° 0 mm 0 m/s 695 mmHg 45%
    15:00 +31°C° 0 mm 0 m/s 694 mmHg 47%
    16:00 +30°C° 0 mm 0 m/s 694 mmHg 49%
    17:00 +28°C° 0 mm 0 m/s 694 mmHg 51%
    18:00 +27°C° 0 mm 0 m/s 694 mmHg 54%
    19:00 +26°C° 0 mm 0 m/s 695 mmHg 57%
    20:00 +27°C° 0.5 mm 1 m/s 695 mmHg 64%
    21:00 +26°C° 0.5 mm 1 m/s 695 mmHg 71%
    22:00 +24°C° 0.5 mm 2 m/s 696 mmHg 78%
    23:00 +24°C° 1.1 mm 2 m/s 695 mmHg 81%

    19 Décembre, Mercredi

    Heure Température Précipitation Vent Pression Humidité
    00:00 +23°C° 1.1 mm 1 m/s 695 mmHg 85%
    01:00 +23°C° 1.1 mm 1 m/s 695 mmHg 88%
    02:00 +23°C° 0 mm 1 m/s 695 mmHg 89%
    03:00 +22°C° 0 mm 1 m/s 695 mmHg 91%
    04:00 +21°C° 0 mm 2 m/s 695 mmHg 92%
    05:00 +21°C° 0 mm 2 m/s 695 mmHg 92%
    06:00 +23°C° 0 mm 2 m/s 696 mmHg 92%
    07:00 +23°C° 0 mm 2 m/s 696 mmHg 92%
    08:00 +24°C° 0.8 mm 2 m/s 696 mmHg 87%
    09:00 +25°C° 0.8 mm 3 m/s 696 mmHg 82%
    10:00 +27°C° 0.8 mm 3 m/s 697 mmHg 77%
    11:00 +27°C° 1.2 mm 3 m/s 696 mmHg 73%
    12:00 +28°C° 1.2 mm 2 m/s 695 mmHg 70%
    13:00 +29°C° 1.2 mm 2 m/s 695 mmHg 66%
    14:00 +28°C° 2.1 mm 2 m/s 694 mmHg 69%
    15:00 +28°C° 2.1 mm 1 m/s 694 mmHg 72%
    16:00 +27°C° 2.1 mm 1 m/s 694 mmHg 75%
    17:00 +26°C° 1 mm 1 m/s 694 mmHg 79%
    18:00 +23°C° 1 mm 0 m/s 695 mmHg 82%
    19:00 +22°C° 1 mm 0 m/s 695 mmHg 86%
    20:00 +22°C° 0.1 mm 0 m/s 695 mmHg 87%
    21:00 +23°C° 0.1 mm 1 m/s 696 mmHg 87%
    22:00 +23°C° 0.1 mm 1 m/s 696 mmHg 88%
    23:00 +23°C° 0 mm 1 m/s 696 mmHg 90%
    Voir plus